TimeICT,TemperatureF,Dew PointF,Humidity,Sea Level PressureIn,VisibilityMPH,Wind Direction,Wind SpeedMPH,Gust SpeedMPH,PrecipitationIn,Events,Conditions,WindDirDegrees,DateUTC
12:00 AM,75.2,68.0,78,29.89,-9999.0,NNE,8.1,-,N/A,,Clear,30,2013-11-30 17:00:00
12:30 AM,75.2,68.0,78,29.89,-9999.0,NNE,4.6,-,N/A,,Clear,30,2013-11-30 17:30:00
1:00 AM,73.4,68.0,83,29.89,-9999.0,NNE,4.6,-,N/A,,Clear,30,2013-11-30 18:00:00
7:00 AM,71.6,66.2,83,29.92,6.2,NNE,6.9,-,N/A,,Scattered Clouds,30,2013-12-01 00:00:00
7:30 AM,71.6,66.2,83,29.95,6.2,NNE,9.2,-,N/A,,Scattered Clouds,20,2013-12-01 00:30:00
8:00 AM,73.4,64.4,73,29.95,6.2,NNE,9.2,-,N/A,,Scattered Clouds,30,2013-12-01 01:00:00
8:30 AM,73.4,64.4,73,29.98,6.2,NE,9.2,-,N/A,,Scattered Clouds,40,2013-12-01 01:30:00
9:00 AM,75.2,64.4,69,29.98,6.2,NNE,9.2,-,N/A,,Scattered Clouds,30,2013-12-01 02:00:00
9:30 AM,75.2,66.2,73,29.98,6.2,NE,9.2,-,N/A,,Scattered Clouds,40,2013-12-01 02:30:00
10:00 AM,77.0,66.2,69,29.98,6.2,NNE,8.1,-,N/A,,Scattered Clouds,30,2013-12-01 03:00:00
10:30 AM,77.0,66.2,69,29.98,6.2,NNE,5.8,-,N/A,,Scattered Clouds,30,2013-12-01 03:30:00
11:00 AM,78.8,64.4,61,29.95,6.2,NE,6.9,-,N/A,,Scattered Clouds,40,2013-12-01 04:00:00
11:30 AM,80.6,64.4,58,29.95,6.2,NE,10.4,-,N/A,,Scattered Clouds,40,2013-12-01 04:30:00
12:00 PM,80.6,64.4,58,29.92,6.2,NE,11.5,-,N/A,,Scattered Clouds,50,2013-12-01 05:00:00
1:00 PM,82.4,64.4,54,29.89,6.2,NNE,10.4,-,N/A,,Partly Cloudy,30,2013-12-01 06:00:00
1:30 PM,84.2,64.4,51,29.86,6.2,NNE,10.4,-,N/A,,Partly Cloudy,30,2013-12-01 06:30:00
2:00 PM,84.2,66.2,55,29.86,6.2,NNE,10.4,-,N/A,,Partly Cloudy,30,2013-12-01 07:00:00
2:30 PM,84.2,64.4,51,29.86,6.2,NE,11.5,-,N/A,,Partly Cloudy,40,2013-12-01 07:30:00
3:00 PM,84.2,64.4,51,29.83,6.2,NE,11.5,-,N/A,,Partly Cloudy,50,2013-12-01 08:00:00
3:30 PM,84.2,64.4,51,29.83,6.2,NNE,11.5,-,N/A,,Partly Cloudy,20,2013-12-01 08:30:00
4:00 PM,84.2,64.4,51,29.86,6.2,NE,11.5,-,N/A,,Partly Cloudy,50,2013-12-01 09:00:00
4:30 PM,82.4,64.4,54,29.86,6.2,NNE,11.5,-,N/A,,Partly Cloudy,30,2013-12-01 09:30:00
5:00 PM,82.4,64.4,54,29.86,6.2,NE,11.5,-,N/A,,Partly Cloudy,40,2013-12-01 10:00:00
5:30 PM,80.6,64.4,58,29.86,6.2,NE,9.2,-,N/A,,Partly Cloudy,40,2013-12-01 10:30:00
6:00 PM,78.8,66.2,65,29.89,6.2,NE,6.9,-,N/A,,Partly Cloudy,50,2013-12-01 11:00:00
6:30 PM,77.0,66.2,69,29.89,6.2,NE,6.9,-,N/A,,Partly Cloudy,50,2013-12-01 11:30:00
7:00 PM,77.0,66.2,69,29.89,6.2,NE,5.8,-,N/A,,Partly Cloudy,40,2013-12-01 12:00:00
7:30 PM,77.0,66.2,69,29.92,6.2,NNE,5.8,-,N/A,,Partly Cloudy,30,2013-12-01 12:30:00
8:00 PM,77.0,66.2,69,29.92,6.2,North,6.9,-,N/A,,Partly Cloudy,10,2013-12-01 13:00:00
8:30 PM,75.2,66.2,73,29.95,6.2,NNE,8.1,-,N/A,,Partly Cloudy,20,2013-12-01 13:30:00
9:00 PM,75.2,66.2,73,29.95,5.6,NNE,8.1,-,N/A,,Partly Cloudy,20,2013-12-01 14:00:00
9:30 PM,73.4,66.2,78,29.95,5.6,NNE,6.9,-,N/A,,Partly Cloudy,20,2013-12-01 14:30:00
10:00 PM,73.4,64.4,73,29.95,5.6,NNE,8.1,-,N/A,,Partly Cloudy,20,2013-12-01 15:00:00
10:30 PM,73.4,64.4,73,29.95,5.6,North,6.9,-,N/A,,Partly Cloudy,10,2013-12-01 15:30:00
11:00 PM,71.6,64.4,78,29.95,5.6,North,6.9,-,N/A,,Partly Cloudy,10,2013-12-01 16:00:00
11:30 PM,71.6,62.6,73,29.95,5.6,North,8.1,-,N/A,,Partly Cloudy,10,2013-12-01 16:30:00